HIMAWARI-8 (40267 NORAD) Tracking and Keplerian Element Data

This shows tracking and keplerian element data for the satellite.

Feedback or suggestion? Click here.




ElementValue
Catalog40267
NameHIMAWARI-8
Epoch Orbit2538
Epoch Day261.89618751
Epoch Year2021
RAAN148.4726
Inclination0.0094
Eccentricity0.0001522
Argument of Perigee48.6918
Mean Anonmoly264.1357
Mean Motion1.00270846
Decay Rate-3E-06
L11 40267U 14060A 21261.89618751 -.00000300 00000-0 00000-0 0 9991
L22 40267 0.0094 148.4726 0001522 48.6918 264.1357 1.00270846 25386

Live tracking and technical data element details for HIMAWARI-8 (NORAD 40267). HIMAWARI-8 can be tracked NOW for your location showing map with azimuth and elevation plus other details from your city location.

Track the satellite on the map from your city or location and see movement details for azimuth, elevation, latitude, longitude, range, height, and movement on the map or in text.







IsCatalogInMostPopularTable: catalog: 40267, numindb: 526
Update: records affected: 1



GetName: 40267 HIMAWARI-8

Hit Count: updated at: Sat, 25 Sep 2021 23:35:16 GMT